Hot Springs, VA

4:39 PM EST on January 21, 2018 (GMT -0500)
Ingalls

Weather History for KHSP - November, 2013

Change the Weather History Date:

Thursday, November 21, 2013

  Actual Average Record
Temperature  
Mean Temperature 38 °F -  
Max Temperature 48 °F 43 °F 62 °F (2007)
Min Temperature 28 °F 31 °F 10 °F (2000)
Degree Days  
Heating Degree Days 27    
Moisture  
Dew Point 38 °F    
Average Humidity 93    
Maximum Humidity 100    
Minimum Humidity 74    
Precipitation  
Precipitation 0.00 in - - ()
Sea Level Pressure  
Sea Level Pressure 30.43 in    
Wind  
Wind Speed 9 mph (South)    
Max Wind Speed 18 mph    
Max Gust Speed 25 mph    
Visibility 8 miles    
Events Fog , Snow    
Averages and records for this station are not official NWS values.
T = Trace of Precipitation, MM = Missing Value Source: NWS Daily Summary

Daily Weather History Graph

Daily Weather History Graph

Search for Another Location

Airport or City:

Trip Planner

Search our weather history database for the weather conditions in past years. The results will help you decide how hot, cold, wet, or windy it might be!

Date:

Astronomy

Nov. 21, 2013 Rise Set
Actual Time 7:06 AM EST 5:03 PM EST
Civil Twilight 6:38 AM EST 5:32 PM EST
Nautical Twilight 6:05 AM EST 6:04 PM EST
Astronomical Twilight 5:34 AM EST 6:35 PM EST
Moon 8:38 PM EST 10:12 AM EST
Length of Visible Light 10h 54m
Length of Day
9h 57m
Waning Gibbous, 85% of the Moon is Illuminated
Nov 21
Waning Gibbous
Nov 25
Last Quarter
Dec 2
New
Dec 9
First Quarter
Dec 17
Full

Hourly Weather History & Observations

Time (EST) Temp. Windchill Dew Point Humidity Pressure Visibility Wind Dir Wind Speed Gust Speed Precip Events Conditions
12:55 AM 28.4 °F 21.2 °F 21.2 °F 74% 30.43 in 10.0 mi SE 6.9 mph - N/A   Overcast
1:35 AM 28.4 °F 20.4 °F 24.8 °F 86% 30.43 in 10.0 mi SE 8.1 mph - N/A   Overcast
2:35 AM 28.4 °F 21.2 °F 26.6 °F 93% 30.42 in 10.0 mi SSE 6.9 mph - N/A   Overcast
2:55 AM 28.4 °F 20.4 °F 26.6 °F 93% 30.43 in 10.0 mi SSE 8.1 mph - N/A   Overcast
3:35 AM 28.4 °F 19.7 °F 28.4 °F 100% 30.43 in 2.5 mi South 9.2 mph - N/A   Overcast
4:15 AM 28.4 °F 19.7 °F 28.4 °F 100% 30.42 in 2.0 mi South 9.2 mph - N/A   Overcast
5:15 AM 28.4 °F 21.2 °F 28.4 °F 100% 30.43 in 10.0 mi South 6.9 mph - N/A   Clear
5:55 AM 30.2 °F 22.6 °F 30.2 °F 100% 30.44 in 10.0 mi South 8.1 mph - N/A   Mostly Cloudy
6:15 AM 32.0 °F 24.8 °F 30.2 °F 93% 30.44 in 10.0 mi South 8.1 mph - N/A   Overcast
6:35 AM 32.0 °F 24.2 °F 32.0 °F 100% 30.45 in 10.0 mi South 9.2 mph - N/A   Overcast
6:55 AM 32.0 °F 26.4 °F 32.0 °F 100% 30.46 in 10.0 mi South 5.8 mph - N/A   Overcast
7:15 AM 33.8 °F 27.7 °F 32.0 °F 93% 30.46 in 0.2 mi SSW 6.9 mph - N/A Fog Fog
8:55 AM 35.6 °F 27.5 °F 35.6 °F 100% 30.47 in 0.2 mi South 11.5 mph 17.3 mph N/A Fog Fog
9:15 AM 37.4 °F 29.8 °F 37.4 °F 100% 30.47 in 0.2 mi South 11.5 mph 17.3 mph N/A Fog Fog
10:18 AM 37.4 °F 29.3 °F 37.4 °F 100% 30.47 in 0.2 mi South 12.7 mph 17.3 mph N/A Snow Light Snow
10:35 AM 37.4 °F 29.3 °F 37.4 °F 100% 30.48 in 0.2 mi South 12.7 mph 16.1 mph N/A Snow Light Snow
11:15 AM 39.2 °F 32.5 °F 39.2 °F 100% 30.47 in 0.2 mi South 10.4 mph 19.6 mph N/A   Unknown
11:35 AM 39.2 °F 33.0 °F 39.2 °F 100% 30.46 in 0.2 mi South 9.2 mph 18.4 mph N/A Fog Fog
12:15 PM 39.2 °F 33.6 °F 39.2 °F 100% 30.45 in 0.5 mi SSW 8.1 mph - N/A   Unknown
12:35 PM 39.2 °F 32.0 °F 39.2 °F 100% 30.44 in 0.2 mi SSW 11.5 mph 16.1 mph N/A Fog Fog
1:15 PM 44.6 °F 41.4 °F 41.0 °F 87% 30.43 in 10.0 mi SSW 5.8 mph - N/A   Scattered Clouds
1:35 PM 44.6 °F 41.4 °F 39.2 °F 81% 30.42 in 10.0 mi SSE 5.8 mph - N/A   Clear
1:55 PM 42.8 °F 41.1 °F 37.4 °F 81% 30.41 in 10.0 mi South 3.5 mph - N/A   Clear
2:15 PM 44.6 °F 42.2 °F 39.2 °F 81% 30.41 in 10.0 mi SW 4.6 mph - N/A   Clear
2:35 PM 44.6 °F 41.4 °F 37.4 °F 76% 30.40 in 10.0 mi SSE 5.8 mph - N/A   Clear
2:55 PM 39.2 °F 37.0 °F 35.6 °F 87% 30.39 in 10.0 mi South 3.5 mph - N/A   Clear
3:35 PM 42.8 °F 37.5 °F 41.0 °F 93% 30.40 in 10.0 mi South 9.2 mph - N/A   Mostly Cloudy
3:55 PM 42.8 °F 39.3 °F 41.0 °F 93% 30.40 in 10.0 mi South 5.8 mph - N/A   Mostly Cloudy
4:15 PM 42.8 °F 37.5 °F 41.0 °F 93% 30.40 in 10.0 mi South 9.2 mph - N/A   Scattered Clouds
4:55 PM 42.8 °F 38.6 °F 39.2 °F 87% 30.40 in 10.0 mi SSW 6.9 mph - N/A   Clear
6:35 PM 42.8 °F 36.6 °F 42.8 °F 100% 30.41 in 10.0 mi South 11.5 mph 18.4 mph N/A   Clear
6:55 PM 44.6 °F 39.7 °F 42.8 °F 93% 30.41 in 10.0 mi SSW 9.2 mph - N/A   Clear
7:15 PM 44.6 °F 39.7 °F 42.8 °F 93% 30.41 in 10.0 mi SSW 9.2 mph - N/A   Clear
7:35 PM 44.6 °F 40.7 °F 42.8 °F 93% 30.41 in 10.0 mi SSW 6.9 mph - N/A   Clear
7:55 PM 44.6 °F 39.7 °F 44.6 °F 100% 30.41 in 10.0 mi SSW 9.2 mph - N/A   Clear
8:15 PM 46.4 °F 41.1 °F 44.6 °F 93% 30.41 in 10.0 mi SSW 11.5 mph 18.4 mph N/A   Clear
8:35 PM 46.4 °F 40.1 °F 44.6 °F 93% 30.41 in 10.0 mi South 15.0 mph 24.2 mph N/A   Scattered Clouds
8:57 PM 46.4 °F - 44.6 °F 93% 30.40 in 10.0 mi North - - N/A   Clear
9:15 PM 46.4 °F 41.9 °F 44.6 °F 93% 30.41 in 10.0 mi SSW 9.2 mph 20.7 mph N/A   Mostly Cloudy
9:55 PM 46.4 °F 39.8 °F 44.6 °F 93% 30.41 in 10.0 mi SSW 16.1 mph 21.9 mph N/A   Mostly Cloudy
10:16 PM 46.4 °F 40.7 °F 44.6 °F 93% 30.41 in 10.0 mi SW 12.7 mph 19.6 mph N/A   Overcast
10:35 PM 46.4 °F 40.4 °F 44.6 °F 93% 30.42 in 10.0 mi SW 13.8 mph - N/A   Overcast
11:35 PM 48.2 °F - 44.6 °F 87% 30.41 in 10.0 mi SW 16.1 mph 24.2 mph N/A   Overcast
11:55 PM 48.2 °F - 44.6 °F 87% 30.40 in 10.0 mi SW 18.4 mph 25.3 mph N/A   Overcast